• In Hungary
  • List of Countries
  • For 7 days
  • Water Temperature
  • Satellite Maps
  • Weather Map
  • News
  • Weather Widgets
  • user-avatar
    Login

    Hourly Weather Lucknow

    Today, 21 November, Tuesday

    Time Temperature Precipitation Wind Pressure Humidity
    00:00 +19°C° 0 mm 3 mps 749 mmHg 30%
    01:00 +19°C° 0 mm 3 mps 749 mmHg 30%
    02:00 +18°C° 0 mm 3 mps 748 mmHg 30%
    03:00 +18°C° 0 mm 3 mps 748 mmHg 31%
    04:00 +17°C° 0 mm 3 mps 748 mmHg 31%
    05:00 +15°C° 0 mm 4 mps 748 mmHg 31%
    06:00 +17°C° 0 mm 4 mps 749 mmHg 31%
    07:00 +18°C° 0 mm 4 mps 749 mmHg 30%
    08:00 +19°C° 0 mm 4 mps 750 mmHg 30%
    09:00 +21°C° 0 mm 4 mps 750 mmHg 27%
    10:00 +23°C° 0 mm 5 mps 750 mmHg 24%
    11:00 +26°C° 0 mm 5 mps 749 mmHg 20%
    12:00 +26°C° 0 mm 5 mps 749 mmHg 20%
    13:00 +27°C° 0 mm 5 mps 748 mmHg 19%
    14:00 +27°C° 0 mm 5 mps 747 mmHg 19%
    15:00 +25°C° 0 mm 4 mps 747 mmHg 21%
    16:00 +24°C° 0 mm 3 mps 747 mmHg 24%
    17:00 +21°C° 0 mm 3 mps 747 mmHg 27%
    18:00 +21°C° 0 mm 3 mps 747 mmHg 28%
    19:00 +20°C° 0 mm 3 mps 748 mmHg 28%
    20:00 +19°C° 0 mm 3 mps 748 mmHg 29%
    21:00 +19°C° 0 mm 3 mps 748 mmHg 30%
    22:00 +18°C° 0 mm 3 mps 748 mmHg 31%
    23:00 +18°C° 0 mm 3 mps 748 mmHg 32%

    Tomorrow, 22 November, Wednesday

    Time Temperature Precipitation Wind Pressure Humidity
    00:00 +17°C° 0 mm 3 mps 748 mmHg 32%
    01:00 +17°C° 0 mm 3 mps 747 mmHg 33%
    02:00 +17°C° 0 mm 3 mps 747 mmHg 33%
    03:00 +16°C° 0 mm 3 mps 747 mmHg 34%
    04:00 +16°C° 0 mm 2 mps 747 mmHg 34%
    05:00 +16°C° 0 mm 2 mps 747 mmHg 35%
    06:00 +17°C° 0 mm 3 mps 747 mmHg 34%
    07:00 +18°C° 0 mm 3 mps 748 mmHg 33%
    08:00 +19°C° 0 mm 3 mps 749 mmHg 32%
    09:00 +21°C° 0 mm 3 mps 749 mmHg 29%
    10:00 +24°C° 0 mm 3 mps 749 mmHg 25%
    11:00 +26°C° 0 mm 4 mps 749 mmHg 21%
    12:00 +27°C° 0 mm 4 mps 748 mmHg 20%
    13:00 +27°C° 0 mm 4 mps 747 mmHg 20%
    14:00 +28°C° 0 mm 4 mps 747 mmHg 19%
    15:00 +26°C° 0 mm 4 mps 746 mmHg 22%
    16:00 +24°C° 0 mm 3 mps 746 mmHg 24%
    17:00 +23°C° 0 mm 2 mps 746 mmHg 27%
    18:00 +21°C° 0 mm 2 mps 746 mmHg 28%
    19:00 +20°C° 0 mm 2 mps 747 mmHg 28%
    20:00 +20°C° 0 mm 2 mps 747 mmHg 29%
    21:00 +19°C° 0 mm 2 mps 747 mmHg 30%
    22:00 +19°C° 0 mm 3 mps 747 mmHg 31%
    23:00 +18°C° 0 mm 3 mps 747 mmHg 32%

    Day after tomorrow, 23 November, Thursday

    Time Temperature Precipitation Wind Pressure Humidity
    00:00 +18°C° 0 mm 3 mps 747 mmHg 32%
    01:00 +17°C° 0 mm 3 mps 747 mmHg 32%
    02:00 +17°C° 0 mm 3 mps 746 mmHg 33%
    03:00 +16°C° 0 mm 2 mps 746 mmHg 33%
    04:00 +16°C° 0 mm 2 mps 746 mmHg 33%
    05:00 +16°C° 0 mm 2 mps 746 mmHg 33%
    06:00 +17°C° 0 mm 2 mps 747 mmHg 32%
    07:00 +17°C° 0 mm 2 mps 748 mmHg 31%
    08:00 +18°C° 0 mm 2 mps 748 mmHg 31%
    09:00 +20°C° 0 mm 2 mps 748 mmHg 27%
    10:00 +23°C° 0 mm 2 mps 749 mmHg 23%
    11:00 +25°C° 0 mm 2 mps 749 mmHg 19%
    12:00 +26°C° 0 mm 2 mps 748 mmHg 17%
    13:00 +27°C° 0 mm 2 mps 748 mmHg 16%
    14:00 +28°C° 0 mm 3 mps 747 mmHg 15%
    15:00 +26°C° 0 mm 2 mps 747 mmHg 17%
    16:00 +24°C° 0 mm 2 mps 747 mmHg 19%
    17:00 +23°C° 0 mm 2 mps 747 mmHg 21%
    18:00 +21°C° 0 mm 2 mps 747 mmHg 21%
    19:00 +21°C° 0 mm 1 mps 748 mmHg 22%
    20:00 +21°C° 0 mm 1 mps 748 mmHg 23%
    21:00 +20°C° 0 mm 1 mps 748 mmHg 23%
    22:00 +20°C° 0 mm 1 mps 748 mmHg 23%
    23:00 +18°C° 0 mm 2 mps 748 mmHg 24%

    24 November, Friday

    Time Temperature Precipitation Wind Pressure Humidity
    00:00 +19°C° 0 mm 1 mps 748 mmHg 24%
    01:00 +18°C° 0 mm 1 mps 748 mmHg 25%
    02:00 +18°C° 0 mm 1 mps 747 mmHg 26%
    03:00 +16°C° 0 mm 1 mps 748 mmHg 26%
    04:00 +16°C° 0 mm 1 mps 748 mmHg 27%
    05:00 +16°C° 0 mm 1 mps 748 mmHg 27%
    06:00 +18°C° 0 mm 1 mps 748 mmHg 27%
    07:00 +19°C° 0 mm 1 mps 749 mmHg 27%
    08:00 +20°C° 0 mm 1 mps 750 mmHg 27%
    09:00 +22°C° 0 mm 1 mps 750 mmHg 24%
    10:00 +24°C° 0 mm 2 mps 750 mmHg 22%
    11:00 +26°C° 0 mm 2 mps 750 mmHg 19%
    12:00 +26°C° 0 mm 2 mps 749 mmHg 18%
    13:00 +27°C° 0 mm 2 mps 749 mmHg 17%
    14:00 +28°C° 0 mm 2 mps 748 mmHg 16%
    15:00 +26°C° 0 mm 2 mps 748 mmHg 18%
    16:00 +25°C° 0 mm 2 mps 748 mmHg 20%
    17:00 +23°C° 0 mm 2 mps 747 mmHg 22%
    18:00 +22°C° 0 mm 1 mps 748 mmHg 22%
    19:00 +22°C° 0 mm 1 mps 748 mmHg 23%
    20:00 +21°C° 0 mm 1 mps 749 mmHg 24%
    21:00 +20°C° 0 mm 1 mps 749 mmHg 24%
    22:00 +20°C° 0 mm 1 mps 749 mmHg 24%
    23:00 +20°C° 0 mm 1 mps 749 mmHg 25%

    25 November, Saturday

    Time Temperature Precipitation Wind Pressure Humidity
    00:00 +19°C° 0 mm 1 mps 748 mmHg 25%
    01:00 +19°C° 0 mm 1 mps 748 mmHg 26%
    02:00 +18°C° 0 mm 1 mps 748 mmHg 26%
    03:00 +18°C° 0 mm 1 mps 748 mmHg 26%
    04:00 +18°C° 0 mm 1 mps 748 mmHg 27%
    05:00 +16°C° 0 mm 1 mps 748 mmHg 27%
    06:00 +18°C° 0 mm 1 mps 749 mmHg 27%
    07:00 +17°C° 0 mm 0 mps 750 mmHg 26%
    08:00 +18°C° 0 mm 0 mps 751 mmHg 26%
    09:00 +20°C° 0 mm 0 mps 751 mmHg 23%
    10:00 +22°C° 0 mm 0 mps 751 mmHg 20%
    11:00 +24°C° 0 mm 0 mps 751 mmHg 18%
    12:00 +27°C° 0 mm 1 mps 750 mmHg 17%
    13:00 +27°C° 0 mm 1 mps 750 mmHg 15%
    14:00 +28°C° 0 mm 1 mps 749 mmHg 14%
    15:00 +26°C° 0 mm 1 mps 749 mmHg 16%
    16:00 +25°C° 0 mm 1 mps 749 mmHg 18%
    17:00 +21°C° 0 mm 0 mps 749 mmHg 20%
    18:00 +21°C° 0 mm 0 mps 749 mmHg 20%
    19:00 +20°C° 0 mm 0 mps 750 mmHg 21%
    20:00 +20°C° 0 mm 0 mps 750 mmHg 22%
    21:00 +19°C° 0 mm 0 mps 750 mmHg 22%
    22:00 +19°C° 0 mm 0 mps 750 mmHg 23%
    23:00 +18°C° 0 mm 0 mps 750 mmHg 24%

    26 November, Sunday

    Time Temperature Precipitation Wind Pressure Humidity
    00:00 +18°C° 0 mm 0 mps 750 mmHg 25%
    01:00 +17°C° 0 mm 0 mps 749 mmHg 25%
    02:00 +17°C° 0 mm 0 mps 749 mmHg 26%
    03:00 +17°C° 0 mm 0 mps 749 mmHg 27%
    04:00 +16°C° 0 mm 0 mps 749 mmHg 27%
    05:00 +16°C° 0 mm 0 mps 750 mmHg 28%
    06:00 +17°C° 0 mm 0 mps 750 mmHg 28%
    07:00 +20°C° 0 mm 1 mps 751 mmHg 28%
    08:00 +21°C° 0 mm 1 mps 752 mmHg 27%
    09:00 +23°C° 0 mm 1 mps 751 mmHg 24%
    10:00 +25°C° 0 mm 1 mps 751 mmHg 22%
    11:00 +25°C° 0 mm 0 mps 751 mmHg 19%
    12:00 +27°C° 0 mm 1 mps 750 mmHg 18%
    13:00 +28°C° 0 mm 1 mps 750 mmHg 17%
    14:00 +28°C° 0 mm 1 mps 749 mmHg 16%
    15:00 +27°C° 0 mm 1 mps 749 mmHg 18%
    16:00 +25°C° 0 mm 1 mps 749 mmHg 20%
    17:00 +24°C° 0 mm 1 mps 748 mmHg 22%
    18:00 +23°C° 0 mm 1 mps 749 mmHg 23%
    19:00 +22°C° 0 mm 1 mps 749 mmHg 23%
    20:00 +22°C° 0 mm 1 mps 749 mmHg 24%
    21:00 +21°C° 0 mm 1 mps 749 mmHg 25%
    22:00 +21°C° 0 mm 1 mps 749 mmHg 26%
    23:00 +18°C° 0 mm 0 mps 749 mmHg 27%
    Show more